Погода в Чаре

Погода в Чаре : погода сейчас, прогноз погоды и архив. Всё, что Вы хотите узнать о погоде в Чаре!

Хотите узнать прогноз погоды в Чаре? Тогда Вам сюда: Погода в Чаре

Поиск расширенной информации на нашем сайте:

Другие новости

Новости СМИ2

Главная страница сайта

Новости сайта

03.07.2017

Напоминаем, что на нашем специализированном сайте Метеоцентр.Азия вы можете получить высокодетализированные автоматические прогнозы погоды по пунктам России, СНГ и мира в авиационном формате (включающие направление и скорость ветра, видимость, явления погоды, количество и форму облачности, нижнюю и верхнюю границу облачности).


Погода в Чаре - сегодня

Время (UTC), дата Ветер
(°,м/с) 
Видим.   Явления Облачность Т
(°С)
Тd
(°С)
f(%) Тe
(°С)
Pmin
(гПа)
dP
(гПа)
Po
(мм)
O2
(г/м3)
Тmin Tmax R s Состояние
почвы
00 17.10.18 тихо ()   20000 м    1/0 верхняя 
[Ci fib]
-7.3 -8.6 90 -7  1028.9  -0.9  705  293  -10      мокрый или
старый снег
50-90% 
03 17.10.18 110 (В) 20000 м    4/0 верхняя 
[Ci fib]
+0.2 -5.8 64 +1  1024.5  -1.6  704  284           
06 17.10.18 тихо ()   20000 м    6/0 средняя, верхняя 
[Ac trans|Ci fib]
+6 -6.6 40 +6  1019.6  -2.9  702  277           
09 17.10.18 тихо ()   20000 м    8/0 средняя, верхняя 
[Ac lent|Ci fib]
+2.1 -6.5 53 +2  1019.5  -1.2  701  281           
15 17.10.18 тихо ()   20000 м    4/0 верхняя 
[Ci fib]
-5.2 -6.6 90 -5  1021.8  -0.2  701  288           
18 17.10.18 240 (ЮЗ) 20000 м    6/0 средняя, верхняя 
[Ac trans|Ci fib]
-5 -6.2 91 -5  1021.5  -0.2  701  288           
21 17.10.18 110 (В) 20000 м    8/4 1500 м кучево-дожд., средняя, верхняя 
[Cb cap|Ac trans|Ci fib]
-3 -4.6 89 -3  1020.7  -0.2  700  286           
00 18.10.18 320 (СЗ) 20000 м    10/4 1500 м кучево-дожд., средняя, верхняя 
[Cb cap|Ac trans|Cs]
-2.8 -4.3 89 -2  1020.5  0.1  700  285  -6      мокрый или
старый снег
50-90% 
03 18.10.18 060 (СВ) 20000 м    10/8 1500 м кучево-дожд., верхняя 
[Cb cap|Cs]
+1.5 -3.6 69 +1  1018.8  -0.3  700  281           
06 18.10.18 060 (СВ) 20000 м    8/6 1500 м кучево-дожд., верхняя 
[Cb cap|Ci fib]
+3.4 -3.5 61 +3  1018.6  0.4  700  279           
09 18.10.18 060 (СВ) 4{12}  20000 м    8/4 1500 м кучево-дожд., верхняя 
[Cb cap|Ci fib]
+4.1 -3.8 56 +2  1019.6  1.2  701  279           
15 18.10.18 210 (ЮЗ) 20000 м    8/0 верхняя 
[Ci fib]
-4.2 -6 87 -4  1024.2  0.5  703  288           
18 18.10.18 270 (З) 20000 м    8/0 верхняя 
[Sc|Ci fib]
-7 -8.2 91 -7  1024.4  -0.8  702  291           
21 18.10.18 050 (СВ) 20000 м    6/3 1500 м верхняя 
[Sc|Ci fib]
-6.5 -7.7 91 -6  1022.4  -1.6  701  290           
00 19.10.18 тихо ()   20000 м    8/3 1500 м средняя, верхняя 
[Sc|Ac As|Ci fib]
-7 -8.1 92 -7  1021.4  -1.1  700  290  -7.8      мокрый или
старый снег
50-90% 
03 19.10.18 140 (ЮВ) 20000 м    8/3 1500 м кучево-дожд., верхняя 
[Cb cap|Ci fib]
+0.6 -3.8 72 +1  1017.2  -1.4  699  281           
06 19.10.18 050 (СВ) 20000 м    10/9 1000 м кучево-дожд., верхняя 
[Cb cap|Ci fib]
+3.6 -3.9 58 +2  1016  -0.2  699  278           
09 19.10.18 310 (СЗ) 20000 м  в посл. час крупа{ливн. осадки}  4/3 1000 м кучево-дожд., верхняя 
[Cb cap|Ci fib]
-0.2 -4.8 71 1019.1  1.7  700  283           
12 19.10.18 030 (СВ) 20000 м  {ливн. осадки}  3/3 1500 м верхняя 
[Cu Sc|Ci fib]
-0.9 -3.6 82 -2  1021  1.5  701  284    +4.1       
15 19.10.18 340 (С) 20000 м    8/3 1500 м средняя, верхняя 
[Sc|Ac As|Ci fib]
-3.6 -5 90 -3  1022.6  0.7  702  287           
18 19.10.18 тихо ()   20000 м    8/0 средняя, верхняя 
[Ac As|Ci fib]
-4 -5.4 90 -4  1022.9  0.1  702  287           
21 19.10.18 250 (З) 20000 м    3/0 верхняя 
[Ci fib]
-6.7 -7.7 93 -6  1024.4  0.5  702  291           
00 20.10.18 тихо ()   20000 м    10/3 1500 м верхняя 
[Sc|Cs]
-6.9 -8 92 -7  1025  0.5  702  291  -7.8      мокрый или
старый снег
50-90% 
03 20.10.18 тихо ()   20000 м    10/3 1500 м средняя, верхняя 
[Sc|Ac lent|Cs]
-0.3 -3.9 77 -0  1021.7  -1  702  283           
06 20.10.18 030 (СВ) 20000 м    8/0 верхняя 
[Ci fib]
+2.9 -4.5 58 +4  1018.3  -2.1  700  279           
Время (UTC), дата Ветер
(°,м/с) 
Видим.   Явления Облачность Т
(°С)
Тd
(°С)
f(%) Тe
(°С)
Pmin
(гПа)
dP
(гПа)
Po
(мм)
O2
(г/м3)
Тmin Tmax R s Состояние
почвы

Для получения пояснительной информации подведите курсор к названию столбца.

ПОГОДА в Чаре - архив

Всё, что Вы хотите узнать о погоде в Чаре - удобно и подробно!

Выберите нужную дату (начиная с 1 января 2015* года) и нажмите кнопку "Найти".
Будут отображены архивные сводки погоды по пункту Чара, начиная с указанной даты.


Отображать данные в формате CSV (для использования в таблицах Excel)


Внимание! Наш архив погоды предназначен исключительно для личного некоммерческого использования в познавательных целях. Если Вам необходимы официальные справки о состоянии погоды (для производственных, юридических, коммерческих и т.п. целей), обращайтесь в органы Росгидромета.

*Примечание: данная дата относится к архиву по метеостанциям СССР (Россия, СНГ, Балтия).
Архив по метеостанциям Зарубежной Европы и Азии (кроме Китая) хранится 10 дней, по другим регионам земного шара (Китай, Африка, Америка, Австралия, Океания) - 1 день.

Чара - район местоположения метеостанции


Название, широта, долгота, высота метеостанции:
Чара 56.9°ш. 118.3°д. 711 м над ур. моря [Российская Федерация]

Дополнительная информация

В oтличие oт бoльшинства пoгoдных сайтoв мы публикуем пoдрoбную метеoинфoрмацию в детальнoм прoфессиoнальнoм фoрмате.

Характеристики температуры и влажнoсти вoздуха измеряются на высoте 2 м в тени вдали oт зданий и деревьев.
Скoрoсть ветра измеряется на высoте 10 м (на урoвне рoста челoвека скoрoсть ветра ниже в 1.5-2 раза). Если метеoстанция нахoдится в гoрoде или в лесу, тo скoрoсть ветра занижена на 2-4 м/с пo сравнению с oткрытым местoм. Скoрoсть ветра над акватoриями крупных рек и oзёр, а также на вершинах хoлмoв на 2-5 м/с выше, чем в oбычных услoвиях.
Атмoсфернoе давление в разных тoчках местнoсти мoжет значительнo oтличаться oт давления на метеoстанции, в зависимoсти oт услoвий рельефа (при пoдъёме на 10 м давление пoнижается примернo на 1 мм рт.ст.).